Location: Unspecified
(41.9031°N, 12.4386°E)
Time: 03:30:28
(UTC+02:00)

ISS - Pass Details

Date: 09 July 2020
Orbit: 417 x 421 km, 51.6° (Epoch: 08 July)

Event Time Altitude Azimuth Distance (km) Brightness Sun altitude
Exits shadow 01:05:23 14° 55° (NE) 1,279 -1.0 -25.7°
Drops below altitude 10° 01:05:55 10° 56° (NE) 1,497 -0.6 -25.7°
Sets 01:08:01 0° 56° (NE) 2,363 0.5 -25.7°
